Regional Weather Roundup
Issued by NWS

Home | Current Version | Previous Version | Graphics & Text | Print | Product List | Glossary On
Versions: 1 2 3 4 5 6 7 8 9 10 11 12 13 14 15 16 17 18 19 20 21 22 23 24 25 26 27
000
ASUS45 KCYS 160710
RWRWY

WYOMING REGIONAL WEATHER ROUNDUP
NATIONAL WEATHER SERVICE CHEYENNE WY
100 AM MDT WED APR 16 2014

NOTE:  "FAIR" INDICATES FEW OR NO CLOUDS BELOW 12,000 FEET
WITH NO SIGNIFICANT WEATHER AND/OR OBSTRUCTIONS TO VISIBILITY.

WYZ001-160800-
YELLOWSTONE NATIONAL PARK

CITY           SKY/WX    TMP DP  RH WIND       PRES   REMARKS
LK YELLOWSTONE   N/A     18  15  88 CALM      29.91R
W YELLOWSTONE  NOT AVBL

$$
WYZ002>013-054>058-071-098>099-160800-
NORTHERN WYOMING

CITY           SKY/WX    TMP DP  RH WIND       PRES   REMARKS
JACKSON        PTCLDY    30  21  69 E6        29.90R WCI  24
CODY           MOCLDY    34  27  75 NE10      29.82R WCI  26
GREYBULL       PTCLDY    39  31  72 NW20      29.79R WCI  29
WORLAND        PTCLDY    37  30  75 W10       29.81R WCI  30
SHERIDAN       CLOUDY    38  33  82 NW22G31   29.78R WCI  27
BUFFALO        CLOUDY    36  29  75 NW25      29.76R WCI  24
GILLETTE       MIX PCPN  37  34  89 NW17      29.70R WCI  27
HULETT         LGT RAIN  37  36  93 NW3       29.68
NEWCASTLE      DRIZZLE   37  36  93 NW15      29.64  WCI  28

$$
WYZ014>020-022>026-101>103-160800-
CENTRAL WYOMING

CITY           SKY/WX    TMP DP  RH WIND       PRES   REMARKS
BIG PINEY      PTCLDY    27  22  81 N14       29.90R WCI  16
PINEDALE       MOSUNNY   23  21  93 W10       29.88S WCI  12
DUBOIS         CLOUDY    27  21  80 W18G24    29.83R WCI  13
LANDER         CLOUDY    35  29  78 S5        29.84R WCI  31
RIVERTON       MOCLDY    35  27  72 NE10      29.82S WCI  27
CASPER         CLOUDY    32  32 100 S6        29.79R WCI  26
DOUGLAS        FLURRIES  34  32  92 NW16      29.74R WCI  24

$$
WYZ021-027>030-104>119-160800-
SOUTHERN WYOMING

CITY           SKY/WX    TMP DP  RH WIND       PRES   REMARKS
EVANSTON       CLOUDY    35  11  36 W13       29.96S WCI  26
FORT BRIDGER   FAIR      36  10  34 W14G20    29.96R WCI  27
ROCK SPRINGS   MOCLDY    32  23  69 W7        29.89R WCI  26
DIXON          FAIR      41  18  38 W20G26    29.87R
RAWLINS        CLOUDY    34  22  61 NW16      29.81S WCI  24
SARATOGA       FAIR      36  23  60 W18G25    29.82R WCI  25
LARAMIE          N/A    N/A N/A N/A MISG      29.75F
CHEYENNE       LGT SNOW  36  32  85 W22G44    29.73R FOG     WCI  25
TORRINGTON     CLOUDY    50  32  50 W24G32    29.59R
PINE BLUFFS    CLOUDY    43  32  65 NW33G43   29.70S

$$



USA.gov is the U.S. government's official web portal to all federal, state and local government web resources and services.